Decatur, IL

6:47 AM CDT on May 23, 2017 (GMT -0500)
Decatur

Weather History for KDEC - June, 2014

Change the Weather History Date:

Wednesday, June 25, 2014

  Actual Average Record
Temperature  
Mean Temperature 78 °F 75 °F  
Max Temperature 86 °F 85 °F 94 °F (2016)
Min Temperature 69 °F 65 °F 48 °F (2004)
Degree Days  
Heating Degree Days 0 0  
Month to date heating degree days 1 14  
Since 1 June heating degree days 1 14  
Since 1 July heating degree days 6152 5518  
Cooling Degree Days 13 10  
Month to date cooling degree days 211 178  
Year to date cooling degree days 356 265  
Since 1 June cooling degree days 211 178  
Growing Degree Days 26 (Base 50)    
Moisture  
Dew Point 64 °F    
Average Humidity 66    
Maximum Humidity 84    
Minimum Humidity 48    
Precipitation  
Precipitation 0.00 in 0.14 in 0.99 in (2015)
Month to date precipitation 6.76 3.77  
Year to date precipitation 16.42 18.22  
Sea Level Pressure  
Sea Level Pressure 29.97 in    
Wind  
Wind Speed 7 mph (WNW)    
Max Wind Speed 13 mph    
Max Gust Speed 18 mph    
Visibility 10 miles    
Events      
T = Trace of Precipitation, MM = Missing Value Source: NWS Daily Summary

Daily Weather History Graph

Daily Weather History Graph

Search for Another Location

Airport or City:

Trip Planner

Search our weather history database for the weather conditions in past years. The results will help you decide how hot, cold, wet, or windy it might be!

Date:

Astronomy

Jun. 25, 2014 Rise Set
Actual Time 5:28 AM CDT 8:27 PM CDT
Civil Twilight 4:55 AM CDT 9:00 PM CDT
Nautical Twilight 4:14 AM CDT 9:41 PM CDT
Astronomical Twilight 3:25 AM CDT 10:30 PM CDT
Moon 4:19 AM CDT (6/25) 6:59 PM CDT (6/25)
Length of Visible Light 16h 04m
Length of Day
14h 59m
Waning Crescent, 3% of the Moon is Illuminated
Jun 25
Waning Crescent
Jun 27
New
Jul 5
First Quarter
Jul 12
Full
Jul 18
Last Quarter

Hourly Weather History & Observations

Time (CDT) Temp. Heat Index Dew Point Humidity Pressure Visibility Wind Dir Wind Speed Gust Speed Precip Events Conditions
12:54 AM 71.1 °F - 64.0 °F 78% 29.93 in 10.0 mi West 5.8 mph - N/A   Clear
1:54 AM 71.1 °F - 64.0 °F 78% 29.93 in 10.0 mi West 6.9 mph - N/A   Clear
2:54 AM 70.0 °F - 64.0 °F 81% 29.93 in 10.0 mi West 5.8 mph - N/A   Clear
3:54 AM 71.1 °F - 63.0 °F 75% 29.94 in 10.0 mi WNW 6.9 mph - N/A   Scattered Clouds
4:54 AM 69.1 °F - 63.0 °F 81% 29.95 in 10.0 mi NW 6.9 mph - N/A   Clear
5:54 AM 69.1 °F - 64.0 °F 84% 29.96 in 10.0 mi NW 5.8 mph - N/A   Clear
6:54 AM 72.0 °F - 64.9 °F 78% 29.97 in 10.0 mi WNW 6.9 mph - N/A   Clear
7:54 AM 73.9 °F - 64.9 °F 73% 29.99 in 10.0 mi WNW 6.9 mph - N/A   Clear
9:54 AM 81.0 °F 83.0 °F 66.0 °F 60% 30.00 in 10.0 mi WNW 5.8 mph - N/A   Clear
10:54 AM 82.0 °F 84.1 °F 66.0 °F 58% 30.01 in 10.0 mi West 8.1 mph - N/A   Clear
11:54 AM 82.9 °F 84.4 °F 64.0 °F 53% 30.00 in 10.0 mi West 13.8 mph - N/A   Partly Cloudy
12:54 PM 84.0 °F 84.9 °F 63.0 °F 49% 30.00 in 10.0 mi NW 5.8 mph - N/A   Clear
1:54 PM 84.9 °F 86.6 °F 64.9 °F 51% 30.00 in 10.0 mi West 8.1 mph - N/A   Mostly Cloudy
2:54 PM 84.9 °F 85.4 °F 62.1 °F 46% 29.99 in 10.0 mi West 11.5 mph - N/A   Partly Cloudy
3:54 PM 84.9 °F 85.9 °F 63.0 °F 48% 29.98 in 10.0 mi WNW 6.9 mph - N/A   Mostly Cloudy
4:54 PM 84.9 °F 85.9 °F 63.0 °F 48% 29.97 in 10.0 mi WNW 8.1 mph - N/A   Scattered Clouds
5:54 PM 84.0 °F 84.9 °F 63.0 °F 49% 29.96 in 10.0 mi WNW 9.2 mph - N/A   Clear
6:54 PM 82.9 °F 84.4 °F 64.0 °F 53% 29.97 in 10.0 mi WNW 8.1 mph - N/A   Partly Cloudy
9:54 PM 75.0 °F - 66.9 °F 76% 29.99 in 10.0 mi Calm Calm - N/A   Clear
10:54 PM 73.0 °F - 66.9 °F 81% 30.00 in 10.0 mi SW 3.5 mph - N/A   Clear